Location: Home
(42.5358°N, 72.7383°W)
Time: 11:11:54
(UTC-04:00)

Kosmos-337 - Visible Passes

Search period start: 03 July 2022 00:00
Search period end: 13 July 2022 00:00
Orbit: 1467 x 1552 km, 74.0° (Epoch: 02 July)

Date Brightness Start Highest point End Pass type
(mag) Time Alt. Az. Time Alt. Az. Time Alt. Az.
03 Jul ? 01:06:56 10° NNW 01:15:40 45° ENE 01:24:01 11° SE visible
03 Jul ? 03:05:44 10° NNW 03:14:17 46° W 03:20:13 21° SSW visible
04 Jul ? 00:21:25 10° N 00:29:14 30° NE 00:36:54 10° ESE visible
04 Jul ? 02:19:35 10° NNW 02:28:43 73° WSW 02:34:31 25° S visible
04 Jul ? 04:21:30 10° WNW 04:25:35 14° W 04:29:38 10° WSW visible
04 Jul ? 23:36:07 10° N 23:42:28 20° NE 23:48:45 10° E visible
05 Jul ? 01:33:42 10° NNW 01:42:54 75° ENE 01:48:55 24° SSE visible
05 Jul ? 03:33:37 10° NW 03:40:32 25° W 03:45:07 17° SW visible
05 Jul ? 22:51:15 10° N 22:55:22 13° NE 22:59:27 10° ENE visible
06 Jul ? 00:47:58 10° NNW 00:56:49 49° ENE 01:03:22 19° SE visible
06 Jul ? 02:46:56 10° NNW 02:55:16 42° W 02:59:35 27° SSW visible
07 Jul ? 00:02:24 10° N 00:10:27 33° NE 00:17:53 12° ESE visible
07 Jul ? 02:00:42 10° NNW 02:09:44 66° WSW 02:14:07 34° S visible
07 Jul ? 04:03:38 10° WNW 04:06:25 12° W 04:09:13 10° WSW visible
07 Jul ? 23:17:03 10° N 23:23:47 22° NE 23:30:25 10° E visible
08 Jul ? 01:14:45 10° NNW 01:23:59 82° ENE 01:28:41 33° SSE visible
08 Jul ? 03:15:00 10° NW 03:21:26 22° W 03:24:54 18° WSW visible
08 Jul ? 22:32:02 10° N 22:36:45 15° NE 22:41:25 10° ENE visible
09 Jul ? 00:29:00 10° NNW 00:37:58 54° ENE 00:43:19 26° SE visible
09 Jul ? 02:28:08 10° NW 02:36:13 37° W 02:39:32 29° SW visible
09 Jul ? 23:43:24 10° N 23:51:40 36° NE 23:57:59 16° ESE visible
10 Jul ? 01:41:50 10° NNW 01:50:45 60° WSW 01:54:13 39° SSW visible
10 Jul ? 22:57:59 10° N 23:05:03 24° NE 23:12:00 10° E visible
11 Jul ? 00:55:50 10° NNW 01:05:03 89° ENE 01:08:55 40° SSE visible
11 Jul ? 02:56:27 10° NW 03:02:20 20° W 03:05:09 17° WSW visible
11 Jul ? 22:12:53 10° N 22:18:07 16° NE 22:23:17 10° ENE visible
12 Jul ? 00:10:03 10° NNW 00:19:05 60° ENE 00:23:40 31° SE visible
12 Jul ? 02:09:23 10° NW 02:17:10 33° W 02:19:54 28° SW visible
12 Jul ? 21:28:51 10° NNE 21:30:49 11° NNE 21:32:45 10° NE visible
12 Jul ? 23:24:24 10° N 23:32:52 39° ENE 23:38:27 20° ESE visible
